Torna al catalogo

STARLINK-30518

AttivoComunicazioniVLEO
NORAD 58029·PAYLOAD·🇺🇸 United States

Lanciato Oct 9, 2023 da Vandenberg Space Force Base

Loading…

Prossimi Passaggi (prossime 24 ore)

TLE

AggiornatoSource: CelesTrak SupGP

Epoca: Sep 15, 2026, 03:24 UTC

1 58029C 23156B   26258.14215278 -.00014688  00000+0 -43386-3 0  2587
2 58029  53.1576 276.6174 0001277  90.7860  34.2813 15.34404342    15

Traccia STARLINK-30518 in tempo reale con AllMySat

Download on the App Store